Flag for U.S.A. Weather past 2 weeks in Akron, Ohio, U.S.A.

Now
69 °F

Clear.


Feels Like: 69 °F
Forecast: 66 / 81 °F
Wind: 5 mph from Southwest

Location: Akron Fulton International Airport

Current Time: Aug 21, 2014 at 5:16:22 AM

Latest Report: Aug 21, 2014 at 3:54 AM


Visibility: 10 mi

Pressure: 29.96 "Hg

Humidity: 87%

Dew point: 65 °F

Location of AkronLocation

Historic Weather in Akron — Graph

°F

Akron temperature yesterday

Maximum temperature yesterday: 81 °F (at 2:54 PM)
Minimum temperature yesterday: 67 °F (at 2:54 AM)
Average temperature yesterday: 73 °F

Past Weeks' High & Low Weather Summary

 TemperatureHumidityPressure
High85 °F (Aug 10, 4:54 PM)93% (Aug 6, 3:54 AM)30.14 "Hg (Aug 6, 3:54 AM)
Low49 °F (Aug 16, 5:54 AM)37% (Aug 15, 4:54 PM)29.69 "Hg (Aug 12, 3:54 PM)
Average70 °F70%29.95 "Hg
* Reported Aug 6 3:54 AM — Aug 21 3:54 AM, Akron, Weather by CustomWeather, © 2014

Note: Actual official high and low records may vary slightly from our data, if they occured in-between our weather recording intervals... More about our weather records

Advertising

Akron weather history for previous 24 hours

 ConditionsComfort  
Time TempWeatherWind HumidityBarometerVisibility
3:54 AM
Aug 21
69 °FClear.5 mph87%29.96 "Hg10 mi
2:54 AM70 °FClear.6 mph81%29.95 "Hg10 mi
1:54 AM71 °FClear.6 mph81%29.96 "Hg10 mi
12:54 AM69 °FClear.3 mph87%29.97 "Hg10 mi
11:54 PM
Aug 20
71 °FClear.No wind84%29.97 "Hg10 mi
10:54 PM72 °FClear.3 mph81%29.96 "Hg10 mi
9:54 PM73 °FPassing clouds.3 mph84%29.94 "Hg10 mi
8:54 PM76 °FScattered clouds.No wind69%29.91 "Hg10 mi
7:54 PM79 °FPassing clouds.7 mph62%29.90 "Hg10 mi
6:54 PM80 °FBroken clouds.8 mph71%29.89 "Hg10 mi
5:54 PM81 °FPassing clouds.9 mph65%29.90 "Hg10 mi
4:54 PM81 °FSunny.13 mph62%29.89 "Hg10 mi
3:54 PM80 °FLight rain. Broken clouds.12 mph69%29.90 "Hg10 mi
2:54 PM81 °FScattered clouds.10 mph69%29.89 "Hg10 mi
1:54 PM79 °FMostly cloudy.13 mph69%29.91 "Hg10 mi
12:54 PM77 °FOvercast.13 mph74%29.90 "Hg10 mi
11:54 AM77 °FSunny.14 mph71%29.90 "Hg10 mi
10:54 AM75 °FScattered clouds.9 mph74%29.89 "Hg10 mi
9:54 AM70 °FCloudy.8 mph84%29.89 "Hg10 mi
8:54 AM68 °FPartly sunny.6 mph90%29.88 "Hg10 mi
7:54 AM67 °FLight rain. Partly sunny.9 mph90%29.87 "Hg10 mi
6:54 AM67 °FThunderstorms. Fog.6 mph93%29.88 "Hg5 mi
6:01 AM67 °FThunderstorms. Fog.7 mph93%29.88 "Hg4 mi
Weather by CustomWeather, © 2014

See weather overviewHow to use our weather pages